This demonstration page uses our WeatherBlox Daily Observations layout. Learn more.

Left ArrowRight Arrow

41.12389, -100.76542

Hourly Observations for March 8, 2018

Temp ( °F °C ) Dew Point ( °F °C ) Humidity (%) Winds ( mph kmh ) Pressure ( in mb ) Visibility ( mi km ) Precip ( " mm )
12:53 am 00:53 Clear 18 -7.8 11 -11.7 74 74 Calm 30.26 1025 10 16 0.00 0.00
1:53 am 01:53 Clear 17 -8.3 11 -11.7 77 77 Calm 30.25 1024 10 16 0.00 0.00
2:53 am 02:53 Clear 17 -8.3 12 -11.1 80 80 Calm 30.22 1023 10 16 0.00 0.00
3:53 am 03:53 Clear 16 -8.9 11 -11.7 80 80 Calm 30.21 1023 10 16 0.00 0.00
4:53 am 04:53 Clear 17 -8.3 11 -11.7 77 77 Calm 30.19 1022 10 16 0.00 0.00
5:53 am 05:53 Clear 17 -8.3 12 -11.1 80 80 Calm 30.17 1022 10 16 0.00 0.00
6:53 am 06:53 Clear 18 -7.8 12 -11.1 77 77 Calm 30.16 1022 10 16 0.00 0.00
7:53 am 07:53 Sunny 24 -4.4 17 -8.3 75 75 SSE 5 7 30.15 1021 10 16 0.00 0.00
8:53 am 08:53 Sunny 31 -0.6 20 -6.7 64 64 S 12 19 30.12 1020 10 16 0.00 0.00
9:53 am 09:53 Sunny 37 2.8 20 -6.7 50 50 S 15 24 30.09 1019 10 16 0.00 0.00
10:53 am 10:53 Sunny 43 6.1 18 -7.8 37 37 SSW 12 19 30.06 1018 10 16 0.00 0.00
11:53 am 11:53 Sunny 47 8.3 19 -7.2 33 33 SSW 10 17 30.04 1017 10 16 0.00 0.00
12:53 pm 12:53 Sunny 50 10 17 -8.3 27 27 undefined N/A 30.01 1016 10 16 0.00 0.00
1:53 pm 13:53 Sunny 53 11.7 18 -7.8 25 25 VRB 5 7 29.98 1015 10 16 0.00 0.00
2:53 pm 14:53 Sunny 54 12.2 20 -6.7 26 26 VRB 3 6 29.96 1015 10 16 0.00 0.00
3:53 pm 15:53 Sunny 55 12.8 19 -7.2 24 24 W 3 6 29.95 1014 10 16 0.00 0.00
4:53 pm 16:53 Sunny 55 12.8 19 -7.2 24 24 SSW 5 7 29.93 1014 10 16 0.00 0.00
5:53 pm 17:53 Sunny 53 11.7 19 -7.2 26 26 SSE 5 7 29.93 1013 10 16 0.00 0.00
6:53 pm 18:53 Clear 40 4.4 20 -6.7 45 45 E 6 9 29.93 1013 10 16 0.00 0.00
7:53 pm 19:53 Clear 35 1.7 19 -7.2 52 52 SE 5 7 29.91 1013 10 16 0.00 0.00
8:53 pm 20:53 Clear 30 -1.1 20 -6.7 66 66 E 8 13 29.91 1013 10 16 0.00 0.00
9:53 pm 21:53 Clear 34 1.1 22 -5.6 61 61 E 8 13 29.88 1012 10 16 0.00 0.00
10:53 pm 22:53 Clear 34 1.1 22 -5.6 61 61 ESE 8 13 29.86 1011 10 16 0.00 0.00
11:53 pm 23:53 Clear 31 -0.6 21 -6.1 67 67 E 8 13 29.85 1011 10 16 0.00 0.00

Powered by AerisWeather